This is the latest recevied weather packets stored in our database for station/object GW4003. If no packets are shown the sender has not sent any weather packets the latest 10 day(s).
| Time | Temp. | Humidity | Pressure | Rain* | Wind** | Luminosity | Snow |
|---|---|---|---|---|---|---|---|
| 1777399587 | 11.11° C | 58% | 1017.5 hPa | 0 mm | - | - | - |
| 1777399284 | 11.11° C | 57% | 1017.5 hPa | 0 mm | - | - | - |
| 1777398980 | 11.11° C | 57% | 1017.5 hPa | 0 mm | - | - | - |
| 1777398677 | 11.11° C | 56% | 1017.4 hPa | 0 mm | - | - | - |
| 1777398376 | 11.11° C | 57% | 1017.3 hPa | 0 mm | - | - | - |
| 1777398074 | 11.67° C | 56% | 1017.3 hPa | 0 mm | - | - | - |
| 1777397771 | 11.67° C | 57% | 1017.2 hPa | 0 mm | - | - | - |
| 1777397469 | 11.11° C | 58% | 1016.9 hPa | 0 mm | - | - | - |
| 1777397168 | 11.11° C | 58% | 1017 hPa | 0 mm | - | - | - |
| 1777396865 | 11.11° C | 59% | 1017 hPa | 0 mm | - | - | - |
| 1777396563 | 11.11° C | 59% | 1016.8 hPa | 0 mm | - | - | - |
| 1777396260 | 11.11° C | 60% | 1016.9 hPa | 0 mm | - | - | - |
| 1777395958 | 10.56° C | 61% | 1016.8 hPa | 0 mm | - | - | - |
| 1777395656 | 11.11° C | 60% | 1016.9 hPa | 0 mm | - | - | - |
| 1777395353 | 11.11° C | 60% | 1016.8 hPa | 0 mm | - | - | - |
| 1777395050 | 11.67° C | 59% | 1016.6 hPa | 0 mm | - | - | - |
| 1777394749 | 11.67° C | 60% | 1016.6 hPa | 0 mm | - | - | - |
| 1777394447 | 11.11° C | 60% | 1016.6 hPa | 0 mm | - | - | - |
| 1777394144 | 11.11° C | 60% | 1016.5 hPa | 0 mm | - | - | - |
| 1777393841 | 11.11° C | 61% | 1016.5 hPa | 0 mm | - | - | - |
| 1777393540 | 10.56° C | 61% | 1016.5 hPa | 0 mm | - | - | - |
| 1777393237 | 10.56° C | 62% | 1016.4 hPa | 0 mm | - | - | - |
| 1777392934 | 10.56° C | 63% | 1016.4 hPa | 0 mm | - | - | - |
| 1777392632 | 9.44° C | 67% | 1016.4 hPa | 0 mm | - | - | - |
| 1777392332 | 8.89° C | 65% | 1016.3 hPa | 0 mm | - | - | - |
* Rain latest hour (hover to see other rain measurements)
** Current wind speed in m/s (hover to see current wind gust speed)